SCP
0 0 0 0 0 0 0 0 0 0 0 0 0 0 0 0 0 0 0 0 0 0
0 0 0 0 0 0 0 0 0 0 0 0 0 0 0 0 0 0 0 0 0 0
0 0 0 0 0 0 0 0 0 0 0 0 0 0 0 0 0 0 0 0 0 0
0 0 0 0 0 0 0 0 0 0 0 0 0 0 0 0 0 0 0 0 0 0
0 0 0 0 0 0 0 0 0 0 0 0 0 0 0 0 0 0 0 0 0 0
0 0 0 0 0 0 0 0 0 0 0 0 0 0 0 0 0 0 0 0 0 0
0 0 0 0 0 0 0 0 0 0 0 0 0 0 0 0 0 0 0 0 0 0
0 0 0 0 0 0 0 0 0 0 0 0 0 0 0 0 0 0 0 0 0 0
0 0 0 0 0 0 0 0 0 0 0 0 0 0 0 0 0 0 0 0 0 0
0 0 0 0 0 0 0 0 0 0 0 0 0 0 0 0 0 0 0 0 0 0
0 0 0 0 0 0 0 0 0 0 0 0 0 0 0 0 0 0 0 0 0 0
0 0 0 0 0 0 0 0 0 0 0 0 0 0 0 0 0 0 0 0 0 0
0 0 0 0 0 0 0 0 0 0 0 0 0 0 0 0 0 0 0 0 0 0
0 0 0 0 0 0 0 0 0 0 0 0 0 0 0 0 0 0 0 0 0 0
Wind_Speed_500mb
107 108 106 102 97 92 91 97 103 106 103 102 99 97 95 90 84 81 80 74 68 64
92 97 96 92 88 85 84 85 89 99 105 104 101 100 97 92 88 85 81 76 68 65
67 76 80 80 81 80 77 77 80 84 95 104 101 101 101 95 91 86 82 75 71 69
38 51 60 67 71 72 71 72 75 76 82 90 100 103 101 98 94 90 85 79 77 71
31 41 50 58 60 63 64 67 70 71 74 78 88 101 102 101 98 94 90 85 81 77
11 21 36 44 49 53 56 60 64 70 72 72 78 89 99 100 98 95 90 87 83 79
13 8 3 19 36 47 52 52 55 60 63 67 71 77 86 97 100 98 95 89 83 79
21 15 9 3 14 27 37 47 51 50 55 59 65 70 76 86 98 99 96 90 85 80
32 21 15 10 6 8 24 38 47 52 52 52 57 59 63 69 83 96 97 93 86 82
60 50 33 21 12 3 6 19 32 41 46 48 50 51 54 57 67 80 91 91 86 84
70 66 59 44 29 18 11 9 15 25 35 40 40 45 49 49 55 62 72 82 84 82
62 62 65 62 56 44 30 18 15 19 22 30 38 42 44 47 48 51 58 66 74 77
55 60 58 55 56 56 45 36 26 16 13 23 28 32 39 44 44 45 47 54 62 68
41 42 46 47 52 48 43 44 38 27 21 10 9 22 30 36 41 45 45 48 54 61
Wind_Direction_500mb
230 231 232 234 236 238 240 238 232 230 228 229 226 225 225 225 225 224 225 225 225 227
234 234 235 237 240 243 244 243 240 235 231 230 228 227 227 226 225 224 224 224 223 225
241 240 241 243 244 244 246 246 244 241 236 233 231 229 228 227 226 225 225 224 223 223
237 249 251 249 249 249 250 249 247 245 241 238 234 232 229 228 227 225 225 223 223 223
223 233 237 247 252 250 250 249 248 247 245 242 238 234 231 228 227 225 224 223 222 221
174 220 231 237 242 251 252 250 248 245 245 243 241 238 234 231 230 228 227 226 225 223
60 74 178 230 237 240 245 249 248 248 247 245 244 243 238 233 231 229 228 227 227 226
31 38 53 155 226 233 234 241 246 250 249 247 245 243 241 236 233 231 229 228 227 227
33 23 23 34 60 212 224 229 238 246 250 252 249 247 245 241 237 233 231 229 227 227
42 39 29 13 5 354 226 229 232 237 243 248 252 253 251 246 241 238 234 231 229 228
36 37 38 34 25 6 336 283 247 240 241 245 247 248 249 250 248 242 238 235 233 231
23 27 30 32 33 31 18 359 313 268 250 244 242 244 244 245 246 244 239 235 234 233
16 15 18 18 23 28 29 30 21 4 311 264 249 243 241 242 242 242 238 234 232 232
11 11 12 10 7 8 15 23 28 33 33 3 292 249 239 238 237 239 237 235 232 229
Wind_Speed_850mb
107 108 106 102 97 92 91 97 103 106 103 102 99 97 95 90 84 81 80 74 68 64
92 97 96 92 88 85 84 85 89 99 105 104 101 100 97 92 88 85 81 76 68 65
67 76 80 80 81 80 77 77 80 84 95 104 101 101 101 95 91 86 82 75 71 69
38 51 60 67 71 72 71 72 75 76 82 90 100 103 101 98 94 90 85 79 77 71
31 41 50 58 60 63 64 67 70 71 74 78 88 101 102 101 98 94 90 85 81 77
11 21 36 44 49 53 56 60 64 70 72 72 78 89 99 100 98 95 90 87 83 79
13 8 3 19 36 47 52 52 55 60 63 67 71 77 86 97 100 98 95 89 83 79
21 15 9 3 14 27 37 47 51 50 55 59 65 70 76 86 98 99 96 90 85 80
32 21 15 10 6 8 24 38 47 52 52 52 57 59 63 69 83 96 97 93 86 82
60 50 33 21 12 3 6 19 32 41 46 48 50 51 54 57 67 80 91 91 86 84
70 66 59 44 29 18 11 9 15 25 35 40 40 45 49 49 55 62 72 82 84 82
62 62 65 62 56 44 30 18 15 19 22 30 38 42 44 47 48 51 58 66 74 77
55 60 58 55 56 56 45 36 26 16 13 23 28 32 39 44 44 45 47 54 62 68
41 42 46 47 52 48 43 44 38 27 21 10 9 22 30 36 41 45 45 48 54 61
Wind_Direction_850mb
230 231 232 234 236 238 240 238 232 230 228 229 226 225 225 225 225 224 225 225 225 227
234 234 235 237 240 243 244 243 240 235 231 230 228 227 227 226 225 224 224 224 223 225
241 240 241 243 244 244 246 246 244 241 236 233 231 229 228 227 226 225 225 224 223 223
237 249 251 249 249 249 250 249 247 245 241 238 234 232 229 228 227 225 225 223 223 223
223 233 237 247 252 250 250 249 248 247 245 242 238 234 231 228 227 225 224 223 222 221
174 220 231 237 242 251 252 250 248 245 245 243 241 238 234 231 230 228 227 226 225 223
60 74 178 230 237 240 245 249 248 248 247 245 244 243 238 233 231 229 228 227 227 226
31 38 53 155 226 233 234 241 246 250 249 247 245 243 241 236 233 231 229 228 227 227
33 23 23 34 60 212 224 229 238 246 250 252 249 247 245 241 237 233 231 229 227 227
42 39 29 13 5 354 226 229 232 237 243 248 252 253 251 246 241 238 234 231 229 228
36 37 38 34 25 6 336 283 247 240 241 245 247 248 249 250 248 242 238 235 233 231
23 27 30 32 33 31 18 359 313 268 250 244 242 244 244 245 246 244 239 235 234 233
16 15 18 18 23 28 29 30 21 4 311 264 249 243 241 242 242 242 238 234 232 232
11 11 12 10 7 8 15 23 28 33 33 3 292 249 239 238 237 239 237 235 232 229